Stations météo

Publicité
Tyndrum, Grande-Bretagne (99020): Température de l'air & dewpoint: 17.09.2018 15:00:00 - 23.09.2018 15:00:00 (BST)Tyndrum, Grande-Bretagne (99020): Quantités de précipitations: 17.09.2018 15:00:00 - 23.09.2018 15:00:00 (BST)
Date & Time tt [°C] td [°C] rr [mm]
23.09.2018 15:00:00 12,1 5,2 0,0
23.09.2018 14:00:00 11,7 4,3 0,0
23.09.2018 13:00:00 12,2 4,9 0,0
23.09.2018 12:00:00 9,5 4,8 0,0
23.09.2018 11:00:00 8,4 6,3 0,2
23.09.2018 10:00:00 4,3 4,0 0,0
23.09.2018 09:00:00 0,8 0,5 0,0
23.09.2018 08:00:00 -0,9 -1,3 0,0
23.09.2018 07:00:00 -0,7 -1,0 0,0
23.09.2018 06:00:00 -1,0 -1,5 0,0
23.09.2018 05:00:00 -0,7 -1,1 0,0
23.09.2018 04:00:00 -0,2 -0,6 0,0
23.09.2018 03:00:00 0,1 -0,3 0,0
23.09.2018 02:00:00 0,5 0,0 0,0
23.09.2018 01:00:00 0,7 0,1 0,0
23.09.2018 00:00:00 1,7 1,1 0,0
22.09.2018 23:00:00 2,9 2,4 0,0
22.09.2018 22:00:00 2,8 2,2 0,0
22.09.2018 21:00:00 3,4 2,5 0,0
22.09.2018 20:00:00 5,2 4,1 0,0
22.09.2018 19:00:00 7,6 5,5 0,0
22.09.2018 18:00:00 8,4 5,4 0,2
22.09.2018 17:00:00 10,7 5,3 0,2
22.09.2018 16:00:00 11,9 4,3 0,0
22.09.2018 15:00:00 10,9 5,4 0,0
22.09.2018 14:00:00 11,1 5,1 0,2
22.09.2018 13:00:00 11,5 4,5 0,0
22.09.2018 12:00:00 10,3 4,0 0,0
22.09.2018 11:00:00 10,4 5,5 0,2
22.09.2018 10:00:00 7,6 5,0 0,0
22.09.2018 09:00:00 7,5 4,5 0,0
22.09.2018 08:00:00 7,1 4,4 0,0
22.09.2018 07:00:00 6,3 3,6 0,0
22.09.2018 06:00:00 6,9 4,6 0,2
22.09.2018 05:00:00 6,7 5,0 0,0
22.09.2018 04:00:00 7,0 5,2 0,2
22.09.2018 03:00:00 6,9 5,0 0,2
22.09.2018 02:00:00 6,9 5,0 0,2
22.09.2018 01:00:00 7,0 5,1 0,4
22.09.2018 00:00:00 7,3 4,4 0,0
21.09.2018 23:00:00 6,9 4,2 0,2
21.09.2018 22:00:00 7,4 5,0 0,0
21.09.2018 21:00:00 7,5 5,7 0,6
21.09.2018 20:00:00 7,8 6,1 0,4
21.09.2018 19:00:00 9,2 5,0 0,0
21.09.2018 18:00:00 9,4 3,9 0,4
21.09.2018 17:00:00 11,5 5,8 0,0
21.09.2018 16:00:00 11,7 5,4 0,0
21.09.2018 15:00:00 11,5 5,0 0,0
21.09.2018 14:00:00 11,1 6,6 0,0
21.09.2018 13:00:00 10,0 7,6 0,2
21.09.2018 12:00:00 11,5 6,4 0,0
21.09.2018 11:00:00 9,4 5,7 0,0
21.09.2018 10:00:00 8,2 6,4 0,0
21.09.2018 09:00:00 6,9 6,2 0,0
21.09.2018 08:00:00 5,7 4,8 0,0
21.09.2018 07:00:00 5,7 4,9 0,2
21.09.2018 06:00:00 6,2 5,5 0,2
21.09.2018 05:00:00 6,0 5,3 0,0
21.09.2018 04:00:00 5,6 4,8 0,0
21.09.2018 03:00:00 5,3 4,6 0,0
21.09.2018 02:00:00 5,5 4,9 0,0
21.09.2018 01:00:00 5,7 4,9 0,0
21.09.2018 00:00:00 6,1 5,3 0,4
20.09.2018 23:00:00 6,7 6,2 0,4
20.09.2018 22:00:00 6,8 6,2 0,0
20.09.2018 21:00:00 6,8 6,1 0,0
20.09.2018 20:00:00 7,1 6,1 0,0
20.09.2018 19:00:00 8,0 6,8 1,2
20.09.2018 18:00:00 8,8 6,8 0,2
20.09.2018 17:00:00 11,0 6,2 0,0
20.09.2018 16:00:00 11,0 6,3 0,0
20.09.2018 15:00:00 11,2 5,6 0,0
20.09.2018 14:00:00 10,3 7,5 0,8
20.09.2018 13:00:00 10,8 5,9 0,0
20.09.2018 12:00:00 11,2 5,6 0,0
20.09.2018 11:00:00 9,8 4,5 1,0
20.09.2018 10:00:00 9,1 6,3 1,6
20.09.2018 09:00:00 9,3 6,1 0,8
20.09.2018 08:00:00 9,1 5,5 2,6
20.09.2018 07:00:00 8,8 5,4 0,0
20.09.2018 06:00:00 8,9 5,6 1,4
20.09.2018 05:00:00 8,3 5,5 1,8
20.09.2018 04:00:00 8,4 5,6 2,8
20.09.2018 03:00:00 8,4 6,3 1,0
20.09.2018 02:00:00 8,7 5,4 0,6
20.09.2018 01:00:00 6,7 5,0 3,0
20.09.2018 00:00:00 7,6 4,3 2,0
19.09.2018 23:00:00 8,5 5,7 1,4
19.09.2018 22:00:00 8,4 5,7 2,8
19.09.2018 21:00:00 8,1 5,5 2,2
19.09.2018 20:00:00 8,3 5,6 2,8
19.09.2018 19:00:00 8,3 5,0 2,8
19.09.2018 18:00:00 9,1 6,4 1,0
19.09.2018 17:00:00 8,7 5,7 4,2
19.09.2018 16:00:00 9,2 6,9 3,2
19.09.2018 15:00:00 9,3 7,1 1,0
19.09.2018 14:00:00 11,7 8,3 3,2
19.09.2018 13:00:00 10,9 8,2 1,0
19.09.2018 12:00:00 13,7 7,7 6,4
19.09.2018 11:00:00 11,9 10,7 5,0
19.09.2018 10:00:00 10,7 9,5 3,2
19.09.2018 09:00:00 9,0 7,7 3,8
19.09.2018 08:00:00 8,5 7,5 3,2
19.09.2018 07:00:00 9,1 7,2 0,4
19.09.2018 06:00:00 9,3 7,1 0,2
19.09.2018 05:00:00 9,6 7,3 0,0
19.09.2018 04:00:00 10,6 6,5 0,2
19.09.2018 03:00:00 9,9 7,6 0,2
19.09.2018 02:00:00 9,8 7,0 3,8
19.09.2018 01:00:00 12,3 8,3 0,2
19.09.2018 00:00:00 12,2 6,6 0,0
18.09.2018 23:00:00 12,6 7,8 0,2
18.09.2018 22:00:00 12,0 8,8 0,0
18.09.2018 21:00:00 11,8 9,0 3,0
18.09.2018 20:00:00 13,0 11,3 0,8
18.09.2018 19:00:00 13,3 11,2 0,0
18.09.2018 18:00:00 13,6 10,7 0,0
18.09.2018 17:00:00 14,0 11,0 0,0
18.09.2018 16:00:00 14,0 11,7 0,2
18.09.2018 15:00:00 14,3 11,9 0,0
18.09.2018 14:00:00 14,7 13,0 0,4
18.09.2018 13:00:00 15,9 14,4 0,4
18.09.2018 12:00:00 15,6 15,2 0,4
18.09.2018 11:00:00 14,7 14,5 1,0
18.09.2018 10:00:00 14,3 14,1 0,8
18.09.2018 09:00:00 13,9 13,6 0,4
18.09.2018 08:00:00 13,6 13,3 0,6
18.09.2018 07:00:00 13,6 13,2 1,2
18.09.2018 06:00:00 13,9 13,4 1,0
18.09.2018 05:00:00 14,2 13,6 2,8
18.09.2018 04:00:00 14,1 13,4 5,0
18.09.2018 03:00:00 14,8 13,5 4,8
18.09.2018 02:00:00 14,8 13,5 2,0
18.09.2018 01:00:00 14,8 13,5 2,2
18.09.2018 00:00:00 15,1 13,7 3,4
17.09.2018 23:00:00 15,1 13,8 3,8
17.09.2018 22:00:00 15,3 14,1 5,0
17.09.2018 21:00:00 15,3 14,1 6,6
17.09.2018 20:00:00 15,3 14,2 4,4
17.09.2018 19:00:00 14,7 14,1 -
17.09.2018 18:00:00 12,9 12,3 1,0
17.09.2018 17:00:00 12,9 11,9 0,0
17.09.2018 16:00:00 12,4 11,5 0,2
17.09.2018 15:00:00 12,6 11,4 1,2

tt = Température de l'air
td = dewpoint
rr = Quantités de précipitations

stations d'obs. à proximité